When you browse on this site, cookies collect data to enhance your experience and personalize the content and advertising you see.
Visit our Privacy Policy to learn more. By continuing to use the site, you agree to this use of cookies and data.
  • în România
  • Lista ţărilor
  • Pe 7 zile
  • Temperatura apei
  • Hartă satelitară
  • Meteo pe hartă
  • Widget-uri
  • user-avatar
    Intrare

    Meteo pe oră la Pireu

    Astăzi, 18 Martie, Luni

    Timp Temperatura Precipitaţii Vânt Presiune Umiditate
    00:00 +16°C° 0 mm 1 m/s 759 mmHg 60%
    01:00 +16°C° 0 mm 1 m/s 759 mmHg 62%
    02:00 +15°C° 0 mm 1 m/s 759 mmHg 62%
    03:00 +15°C° 0 mm 1 m/s 759 mmHg 64%
    04:00 +15°C° 0 mm 1 m/s 759 mmHg 66%
    05:00 +15°C° 0 mm 2 m/s 759 mmHg 68%
    06:00 +15°C° 0 mm 2 m/s 759 mmHg 67%
    07:00 +16°C° 0 mm 2 m/s 759 mmHg 66%
    08:00 +18°C° 0 mm 1 m/s 759 mmHg 64%
    09:00 +18°C° 0 mm 2 m/s 759 mmHg 58%
    10:00 +19°C° 0 mm 2 m/s 759 mmHg 52%
    11:00 +20°C° 0 mm 2 m/s 759 mmHg 47%
    12:00 +21°C° 0 mm 2 m/s 759 mmHg 45%
    13:00 +21°C° 0 mm 2 m/s 759 mmHg 43%
    14:00 +22°C° 0 mm 3 m/s 759 mmHg 41%
    15:00 +22°C° 0 mm 3 m/s 759 mmHg 43%
    16:00 +21°C° 0 mm 3 m/s 759 mmHg 46%
    17:00 +21°C° 0 mm 3 m/s 758 mmHg 48%
    18:00 +20°C° 0 mm 2 m/s 758 mmHg 56%
    19:00 +18°C° 0 mm 2 m/s 759 mmHg 63%
    20:00 +18°C° 0 mm 1 m/s 759 mmHg 70%
    21:00 +18°C° 0 mm 1 m/s 759 mmHg 73%
    22:00 +16°C° 0 mm 1 m/s 759 mmHg 76%
    23:00 +16°C° 0 mm 1 m/s 759 mmHg 78%

    Mâine, 19 Martie, Marţi

    Timp Temperatura Precipitaţii Vânt Presiune Umiditate
    00:00 +16°C° 0 mm 1 m/s 759 mmHg 79%
    01:00 +15°C° 0 mm 1 m/s 759 mmHg 80%
    02:00 +15°C° 0 mm 1 m/s 759 mmHg 81%
    03:00 +14°C° 0 mm 1 m/s 759 mmHg 81%
    04:00 +14°C° 0 mm 1 m/s 759 mmHg 81%
    05:00 +14°C° 0 mm 1 m/s 759 mmHg 81%
    06:00 +14°C° 0 mm 1 m/s 759 mmHg 77%
    07:00 +15°C° 0 mm 1 m/s 759 mmHg 73%
    08:00 +15°C° 0 mm 1 m/s 760 mmHg 69%
    09:00 +18°C° 0 mm 1 m/s 760 mmHg 61%
    10:00 +19°C° 0 mm 1 m/s 760 mmHg 54%
    11:00 +20°C° 0 mm 1 m/s 760 mmHg 46%
    12:00 +21°C° 0 mm 1 m/s 760 mmHg 45%
    13:00 +22°C° 0 mm 1 m/s 760 mmHg 44%
    14:00 +23°C° 0 mm 1 m/s 760 mmHg 43%
    15:00 +22°C° 0 mm 1 m/s 760 mmHg 46%
    16:00 +21°C° 0 mm 2 m/s 760 mmHg 49%
    17:00 +21°C° 0 mm 2 m/s 759 mmHg 52%
    18:00 +20°C° 0 mm 2 m/s 760 mmHg 58%
    19:00 +18°C° 0 mm 2 m/s 760 mmHg 65%
    20:00 +17°C° 0 mm 2 m/s 761 mmHg 71%
    21:00 +18°C° 0 mm 1 m/s 761 mmHg 73%
    22:00 +16°C° 0 mm 1 m/s 761 mmHg 75%
    23:00 +15°C° 0 mm 0 m/s 761 mmHg 77%

    Poimâine, 20 Martie, Miercuri

    Timp Temperatura Precipitaţii Vânt Presiune Umiditate
    00:00 +15°C° 0 mm 0 m/s 761 mmHg 78%
    01:00 +14°C° 0 mm 0 m/s 761 mmHg 80%
    02:00 +14°C° 0 mm 0 m/s 761 mmHg 81%
    03:00 +15°C° 0 mm 1 m/s 761 mmHg 82%
    04:00 +15°C° 0 mm 1 m/s 761 mmHg 82%
    05:00 +14°C° 0 mm 1 m/s 761 mmHg 83%
    06:00 +15°C° 0 mm 2 m/s 762 mmHg 81%
    07:00 +15°C° 0 mm 2 m/s 762 mmHg 79%
    08:00 +16°C° 0 mm 2 m/s 762 mmHg 77%
    09:00 +17°C° 0 mm 3 m/s 763 mmHg 72%
    10:00 +18°C° 0 mm 3 m/s 763 mmHg 67%
    11:00 +19°C° 0 mm 3 m/s 763 mmHg 62%
    12:00 +19°C° 0 mm 4 m/s 763 mmHg 62%
    13:00 +20°C° 0 mm 5 m/s 763 mmHg 61%
    14:00 +20°C° 0 mm 5 m/s 763 mmHg 61%
    15:00 +19°C° 0 mm 5 m/s 763 mmHg 62%
    16:00 +19°C° 0 mm 5 m/s 763 mmHg 63%
    17:00 +19°C° 0 mm 5 m/s 763 mmHg 63%
    18:00 +17°C° 0 mm 5 m/s 763 mmHg 68%
    19:00 +16°C° 0 mm 5 m/s 764 mmHg 72%
    20:00 +15°C° 0 mm 5 m/s 764 mmHg 76%
    21:00 +15°C° 0 mm 5 m/s 764 mmHg 77%
    22:00 +15°C° 0 mm 5 m/s 765 mmHg 78%
    23:00 +15°C° 0 mm 6 m/s 765 mmHg 79%

    21 Martie, Joi

    Timp Temperatura Precipitaţii Vânt Presiune Umiditate
    00:00 +14°C° 0 mm 6 m/s 765 mmHg 78%
    01:00 +14°C° 0 mm 6 m/s 765 mmHg 76%
    02:00 +14°C° 0 mm 7 m/s 765 mmHg 75%
    03:00 +12°C° 0 mm 7 m/s 765 mmHg 72%
    04:00 +12°C° 0 mm 7 m/s 765 mmHg 69%
    05:00 +11°C° 0 mm 7 m/s 765 mmHg 66%
    06:00 +11°C° 0 mm 8 m/s 765 mmHg 63%
    07:00 +12°C° 0 mm 8 m/s 766 mmHg 61%
    08:00 +12°C° 0 mm 8 m/s 766 mmHg 59%
    09:00 +13°C° 0 mm 9 m/s 766 mmHg 56%
    10:00 +15°C° 0 mm 9 m/s 766 mmHg 54%
    11:00 +14°C° 0 mm 10 m/s 766 mmHg 51%
    12:00 +16°C° 0 mm 10 m/s 766 mmHg 52%
    13:00 +16°C° 0 mm 10 m/s 766 mmHg 53%
    14:00 +16°C° 0 mm 10 m/s 766 mmHg 54%
    15:00 +16°C° 0 mm 10 m/s 765 mmHg 56%
    16:00 +14°C° 0 mm 10 m/s 765 mmHg 58%
    17:00 +14°C° 0 mm 10 m/s 765 mmHg 60%
    18:00 +13°C° 0 mm 9 m/s 765 mmHg 62%
    19:00 +13°C° 0 mm 9 m/s 765 mmHg 64%
    20:00 +12°C° 0 mm 8 m/s 766 mmHg 66%
    21:00 +12°C° 0 mm 8 m/s 766 mmHg 67%
    22:00 +12°C° 0 mm 8 m/s 766 mmHg 67%
    23:00 +12°C° 0 mm 8 m/s 766 mmHg 67%

    22 Martie, Vineri

    Timp Temperatura Precipitaţii Vânt Presiune Umiditate
    00:00 +12°C° 0 mm 8 m/s 766 mmHg 66%
    01:00 +11°C° 0 mm 8 m/s 766 mmHg 64%
    02:00 +11°C° 0 mm 8 m/s 766 mmHg 63%
    03:00 +11°C° 0 mm 8 m/s 766 mmHg 64%
    04:00 +11°C° 0 mm 8 m/s 766 mmHg 65%
    05:00 +10°C° 0 mm 8 m/s 766 mmHg 66%
    06:00 +11°C° 0 mm 8 m/s 766 mmHg 63%
    07:00 +11°C° 0 mm 9 m/s 766 mmHg 61%
    08:00 +12°C° 0 mm 9 m/s 767 mmHg 58%
    09:00 +12°C° 0 mm 9 m/s 767 mmHg 53%
    10:00 +13°C° 0 mm 9 m/s 767 mmHg 48%
    11:00 +14°C° 0 mm 10 m/s 767 mmHg 43%
    12:00 +14°C° 0 mm 10 m/s 767 mmHg 43%
    13:00 +16°C° 0 mm 9 m/s 767 mmHg 43%
    14:00 +16°C° 0 mm 9 m/s 766 mmHg 43%
    15:00 +16°C° 0 mm 9 m/s 766 mmHg 46%
    16:00 +15°C° 0 mm 9 m/s 766 mmHg 49%
    17:00 +15°C° 0 mm 9 m/s 766 mmHg 52%
    18:00 +13°C° 0 mm 8 m/s 766 mmHg 57%
    19:00 +12°C° 0 mm 7 m/s 766 mmHg 61%
    20:00 +13°C° 0 mm 6 m/s 766 mmHg 65%
    21:00 +11°C° 0 mm 6 m/s 766 mmHg 66%
    22:00 +11°C° 0 mm 6 m/s 767 mmHg 66%
    23:00 +11°C° 0 mm 6 m/s 767 mmHg 67%

    23 Martie, Sâmbătă

    Timp Temperatura Precipitaţii Vânt Presiune Umiditate
    00:00 +11°C° 0 mm 6 m/s 766 mmHg 68%
    01:00 +11°C° 0 mm 6 m/s 766 mmHg 69%
    02:00 +11°C° 0 mm 6 m/s 766 mmHg 70%
    03:00 +11°C° 0 mm 6 m/s 766 mmHg 71%
    04:00 +11°C° 0 mm 6 m/s 766 mmHg 72%
    05:00 +11°C° 0 mm 6 m/s 766 mmHg 73%
    06:00 +11°C° 0 mm 7 m/s 766 mmHg 71%
    07:00 +12°C° 0 mm 7 m/s 766 mmHg 69%
    08:00 +12°C° 0 mm 7 m/s 766 mmHg 67%
    09:00 +14°C° 0 mm 7 m/s 766 mmHg 62%
    10:00 +15°C° 0 mm 8 m/s 766 mmHg 57%
    11:00 +16°C° 0 mm 8 m/s 766 mmHg 52%
    12:00 +17°C° 0 mm 8 m/s 766 mmHg 51%
    13:00 +17°C° 0 mm 8 m/s 765 mmHg 49%
    14:00 +18°C° 0 mm 7 m/s 765 mmHg 48%
    15:00 +17°C° 0 mm 7 m/s 765 mmHg 49%
    16:00 +17°C° 0 mm 6 m/s 765 mmHg 50%
    17:00 +17°C° 0 mm 6 m/s 764 mmHg 51%
    18:00 +16°C° 0 mm 5 m/s 764 mmHg 55%
    19:00 +15°C° 0 mm 5 m/s 765 mmHg 59%
    20:00 +14°C° 0 mm 4 m/s 765 mmHg 63%
    21:00 +14°C° 0 mm 4 m/s 765 mmHg 63%
    22:00 +13°C° 0 mm 4 m/s 765 mmHg 64%
    23:00 +13°C° 0 mm 4 m/s 765 mmHg 65%
    Arată mai mult